Year,Month,Day,Hour,Minute,Value (Times are PST for windspeed in km/hr)
2010,05,05,09,25,0.50
2010,05,05,09,26,4.80
2010,05,05,09,27,4.90
2010,05,05,09,28,5.60
2010,05,05,09,29,2.90
2010,05,05,09,30,5.80
2010,05,05,09,31,1.90
2010,05,05,09,32,2.20
2010,05,05,09,33,1.40
2010,05,05,09,34,3.60
2010,05,05,09,35,1.70
2010,05,05,09,36,6.50
2010,05,05,09,37,3.00
2010,05,05,09,38,0.70
2010,05,05,09,39,0.60
2010,05,05,09,40,0.70
2010,05,05,09,41,2.10
2010,05,05,09,42,0.20
2010,05,05,09,43,2.10
2010,05,05,09,44,3.40
2010,05,05,09,45,2.70
2010,05,05,09,46,6.40
2010,05,05,09,47,5.90
2010,05,05,09,48,2.90
2010,05,05,09,49,1.10
2010,05,05,09,50,0.60
2010,05,05,09,51,2.60
2010,05,05,09,52,4.80
2010,05,05,09,53,2.50
2010,05,05,09,54,4.00
2010,05,05,09,55,4.20
2010,05,05,09,56,4.80
2010,05,05,09,57,6.10
2010,05,05,09,58,2.60
2010,05,05,09,59,7.10
2010,05,05,10,00,4.90
2010,05,05,10,01,4.70
2010,05,05,10,02,3.00
2010,05,05,10,03,3.60
2010,05,05,10,04,3.50
2010,05,05,10,05,4.70
2010,05,05,10,06,7.50
2010,05,05,10,07,4.80
2010,05,05,10,08,3.40
2010,05,05,10,09,3.70
2010,05,05,10,10,5.60
2010,05,05,10,11,1.20
2010,05,05,10,12,0.50
2010,05,05,10,13,1.50
2010,05,05,10,14,1.90
2010,05,05,10,15,2.50
2010,05,05,10,16,1.70
2010,05,05,10,17,5.00
2010,05,05,10,18,3.70
2010,05,05,10,19,2.70
2010,05,05,10,20,4.10
2010,05,05,10,21,1.80
2010,05,05,10,22,2.30
2010,05,05,10,23,2.40
2010,05,05,10,24,0.40
2010,05,05,10,25,0.30
2010,05,05,10,26,1.00
2010,05,05,10,27,0.20
2010,05,05,10,28,2.00
2010,05,05,10,29,2.80
2010,05,05,10,30,3.70
2010,05,05,10,31,2.70
2010,05,05,10,32,5.30
2010,05,05,10,33,4.70
2010,05,05,10,34,2.10
2010,05,05,10,35,1.90
2010,05,05,10,36,4.40
2010,05,05,10,37,3.70
2010,05,05,10,38,4.10
2010,05,05,10,39,4.80
2010,05,05,10,40,6.20
2010,05,05,10,41,6.00
2010,05,05,10,42,4.80
2010,05,05,10,43,2.30
2010,05,05,10,44,0.10
2010,05,05,10,45,4.30
2010,05,05,10,46,5.20
2010,05,05,10,47,2.10
2010,05,05,10,48,1.70
2010,05,05,10,49,0.70
2010,05,05,10,50,4.70
2010,05,05,10,51,1.90
2010,05,05,10,52,2.70
2010,05,05,10,53,5.60
2010,05,05,10,54,3.20
2010,05,05,10,55,3.30
2010,05,05,10,56,3.90
2010,05,05,10,57,3.00
2010,05,05,10,58,3.80
2010,05,05,10,59,1.70
2010,05,05,11,00,4.20
2010,05,05,11,01,3.70
2010,05,05,11,02,3.30
2010,05,05,11,03,3.40
2010,05,05,11,04,3.10
2010,05,05,11,05,4.90
2010,05,05,11,06,3.90
2010,05,05,11,07,6.40
2010,05,05,11,08,7.00
2010,05,05,11,09,5.70
2010,05,05,11,10,9.50
2010,05,05,11,11,9.20
2010,05,05,11,12,7.40
2010,05,05,11,13,4.00
2010,05,05,11,14,2.30
2010,05,05,11,15,6.40
2010,05,05,11,16,5.50
2010,05,05,11,17,1.00
2010,05,05,11,18,4.90
2010,05,05,11,19,8.40
2010,05,05,11,20,6.40
2010,05,05,11,21,2.30
2010,05,05,11,22,4.30
2010,05,05,11,23,5.70
2010,05,05,11,24,3.70
2010,05,05,11,25,4.00
2010,05,05,11,26,3.10
2010,05,05,11,27,4.10
2010,05,05,11,28,6.90
2010,05,05,11,29,8.80
2010,05,05,11,30,5.40
2010,05,05,11,31,6.00
2010,05,05,11,32,6.00
2010,05,05,11,33,6.10
2010,05,05,11,34,5.00
2010,05,05,11,35,6.20
2010,05,05,11,36,5.60
2010,05,05,11,37,6.50
2010,05,05,11,38,2.90
2010,05,05,11,39,2.80
2010,05,05,11,40,5.20
2010,05,05,11,41,3.90
2010,05,05,11,42,7.30
2010,05,05,11,43,2.30
2010,05,05,11,44,4.90
2010,05,05,11,45,3.70
2010,05,05,11,46,3.60
2010,05,05,11,47,2.60
2010,05,05,11,48,5.20
2010,05,05,11,49,3.30
2010,05,05,11,50,4.20
2010,05,05,11,51,4.70
2010,05,05,11,52,3.20
2010,05,05,11,53,5.90
2010,05,05,11,54,6.90
2010,05,05,11,55,4.10
2010,05,05,11,56,4.40
2010,05,05,11,57,2.80
2010,05,05,11,58,3.90
2010,05,05,11,59,5.70
2010,05,05,12,00,5.30
2010,05,05,12,01,1.90
2010,05,05,12,02,0.60
2010,05,05,12,03,2.10
2010,05,05,12,04,2.30
2010,05,05,12,05,5.90
2010,05,05,12,06,3.90
2010,05,05,12,07,3.10
2010,05,05,12,08,4.40
2010,05,05,12,09,3.50
2010,05,05,12,10,5.60
2010,05,05,12,11,4.70
2010,05,05,12,12,3.00
2010,05,05,12,13,3.20
2010,05,05,12,14,3.70
2010,05,05,12,15,1.50
2010,05,05,12,16,1.30
2010,05,05,12,17,3.70
2010,05,05,12,18,4.30
2010,05,05,12,19,5.80
2010,05,05,12,20,3.00
2010,05,05,12,21,2.30
2010,05,05,12,22,3.80
2010,05,05,12,23,2.50
2010,05,05,12,24,5.10
2010,05,05,12,25,5.70
2010,05,05,12,26,3.70
2010,05,05,12,27,3.70
2010,05,05,12,28,5.80
2010,05,05,12,29,2.20
2010,05,05,12,30,1.60
2010,05,05,12,31,1.80
2010,05,05,12,32,8.70
2010,05,05,12,33,6.10
2010,05,05,12,34,6.40
2010,05,05,12,35,4.50
2010,05,05,12,36,5.00
2010,05,05,12,37,2.10
2010,05,05,12,38,7.20
2010,05,05,12,39,7.30
2010,05,05,12,40,5.70
2010,05,05,12,41,7.60
2010,05,05,12,42,9.10
2010,05,05,12,43,9.70
2010,05,05,12,44,9.10
2010,05,05,12,45,9.40
2010,05,05,12,46,10.80
2010,05,05,12,47,6.40
2010,05,05,12,48,3.80
2010,05,05,12,49,10.10
2010,05,05,12,50,10.10
2010,05,05,12,51,9.90
2010,05,05,12,52,12.40
2010,05,05,12,53,9.20
2010,05,05,12,54,5.30
2010,05,05,12,55,4.70
2010,05,05,12,56,5.80
2010,05,05,12,57,3.40
2010,05,05,12,58,1.30
2010,05,05,12,59,0.60
2010,05,05,13,00,4.40
2010,05,05,13,01,5.00
2010,05,05,13,02,3.60
2010,05,05,13,03,3.10
2010,05,05,13,04,2.40
2010,05,05,13,05,3.80
2010,05,05,13,06,6.70
2010,05,05,13,07,6.40
2010,05,05,13,08,6.50
2010,05,05,13,09,6.80
2010,05,05,13,10,6.90
2010,05,05,13,11,7.20
2010,05,05,13,12,6.40
2010,05,05,13,13,5.20
2010,05,05,13,14,6.40
2010,05,05,13,15,6.40
2010,05,05,13,16,4.30
2010,05,05,13,17,5.80
2010,05,05,13,18,4.80
2010,05,05,13,19,12.30
2010,05,05,13,20,5.10
2010,05,05,13,21,5.40
2010,05,05,13,22,4.80
2010,05,05,13,23,4.80
2010,05,05,13,24,4.80
2010,05,05,13,25,5.20
2010,05,05,13,26,5.40
2010,05,05,13,27,7.20
2010,05,05,13,28,5.20
2010,05,05,13,29,8.10
2010,05,05,13,30,4.90
2010,05,05,13,31,4.10
2010,05,05,13,32,8.00
2010,05,05,13,33,9.70
2010,05,05,13,34,6.40
2010,05,05,13,35,7.10
2010,05,05,13,36,5.30
2010,05,05,13,37,5.60
2010,05,05,13,38,7.00
2010,05,05,13,39,9.40
2010,05,05,13,40,9.90
2010,05,05,13,41,6.40
2010,05,05,13,42,8.50
2010,05,05,13,43,6.20
2010,05,05,13,44,7.00
2010,05,05,13,45,7.40
2010,05,05,13,46,5.50
2010,05,05,13,47,4.00
2010,05,05,13,48,6.30
2010,05,05,13,49,9.30
2010,05,05,13,50,10.40
2010,05,05,13,51,8.50
2010,05,05,13,52,6.00
2010,05,05,13,53,5.40
2010,05,05,13,54,9.60
2010,05,05,13,55,5.00
2010,05,05,13,56,6.60
2010,05,05,13,57,3.60
2010,05,05,13,58,6.60
2010,05,05,13,59,6.70
2010,05,05,14,00,4.60
2010,05,05,14,01,4.00
2010,05,05,14,02,5.90
2010,05,05,14,03,4.90
2010,05,05,14,04,7.10
2010,05,05,14,05,1.50
2010,05,05,14,06,0.80
2010,05,05,14,07,1.10
2010,05,05,14,08,4.60
2010,05,05,14,09,4.10
2010,05,05,14,10,4.30
2010,05,05,14,11,11.60
2010,05,05,14,12,7.30
2010,05,05,14,13,3.20
2010,05,05,14,14,4.30
2010,05,05,14,15,6.30
2010,05,05,14,16,6.30
2010,05,05,14,17,2.00
2010,05,05,14,18,3.40
2010,05,05,14,19,7.50
2010,05,05,14,20,4.90
2010,05,05,14,21,7.90
2010,05,05,14,22,6.80
2010,05,05,14,23,6.90
2010,05,05,14,24,6.40
2010,05,05,14,25,4.20
2010,05,05,14,26,8.20
2010,05,05,14,27,6.50
2010,05,05,14,28,3.90
2010,05,05,14,29,2.80
2010,05,05,14,30,2.30
2010,05,05,14,31,5.40
2010,05,05,14,32,3.30
2010,05,05,14,33,2.20
2010,05,05,14,34,3.70
2010,05,05,14,35,2.80
2010,05,05,14,36,2.40
2010,05,05,14,37,6.40
2010,05,05,14,38,8.90
2010,05,05,14,39,7.80
2010,05,05,14,40,7.50
2010,05,05,14,41,5.30
2010,05,05,14,42,6.90
2010,05,05,14,43,15.70
2010,05,05,14,44,9.20
2010,05,05,14,45,12.20
2010,05,05,14,46,10.50
2010,05,05,14,47,7.80
2010,05,05,14,48,10.80
2010,05,05,14,49,10.40
2010,05,05,14,50,7.10
2010,05,05,14,51,3.00
2010,05,05,14,52,5.90
2010,05,05,14,53,7.10
2010,05,05,14,54,8.60
2010,05,05,14,55,9.50
2010,05,05,14,56,6.40
2010,05,05,14,57,7.40
2010,05,05,14,58,12.10
2010,05,05,14,59,6.20
2010,05,05,15,00,7.90
2010,05,05,15,01,9.70
2010,05,05,15,02,11.60
2010,05,05,15,03,5.70
2010,05,05,15,04,7.20
2010,05,05,15,05,6.50
2010,05,05,15,06,7.70
2010,05,05,15,07,7.60
2010,05,05,15,08,8.60
2010,05,05,15,09,4.50
2010,05,05,15,10,8.00
2010,05,05,15,11,10.40
2010,05,05,15,12,5.30
2010,05,05,15,13,3.50
2010,05,05,15,14,2.20
2010,05,05,15,15,1.40
2010,05,05,15,16,7.00
2010,05,05,15,17,7.20
2010,05,05,15,18,6.40
2010,05,05,15,19,4.10
2010,05,05,15,20,7.50
2010,05,05,15,21,5.80
2010,05,05,15,22,4.60
2010,05,05,15,23,6.70
2010,05,05,15,24,2.40
2010,05,05,15,25,4.50
2010,05,05,15,26,0.80
2010,05,05,15,27,1.20
2010,05,05,15,28,1.50
2010,05,05,15,29,7.80
2010,05,05,15,30,5.60
2010,05,05,15,31,3.20
2010,05,05,15,32,6.60
2010,05,05,15,33,3.90
2010,05,05,15,34,4.80
2010,05,05,15,35,8.80
2010,05,05,15,36,8.50
2010,05,05,15,37,5.00
2010,05,05,15,38,11.20
2010,05,05,15,39,10.80
2010,05,05,15,40,6.70
2010,05,05,15,41,6.40
2010,05,05,15,42,3.90
2010,05,05,15,43,3.00
2010,05,05,15,44,3.30
2010,05,05,15,45,3.00
2010,05,05,15,46,2.90
2010,05,05,15,47,1.90
2010,05,05,15,48,3.10
2010,05,05,15,49,3.70
2010,05,05,15,50,6.40
2010,05,05,15,51,4.50
2010,05,05,15,52,8.10
2010,05,05,15,53,5.80
2010,05,05,15,54,9.00
2010,05,05,15,55,5.80
2010,05,05,15,56,4.00
2010,05,05,15,57,7.30
2010,05,05,15,58,7.40
2010,05,05,15,59,9.10
2010,05,05,16,00,11.30
2010,05,05,16,01,7.80
2010,05,05,16,02,7.10
2010,05,05,16,03,12.00
2010,05,05,16,04,8.00
2010,05,05,16,05,8.90
2010,05,05,16,06,10.50
2010,05,05,16,07,6.80
2010,05,05,16,08,8.50
2010,05,05,16,09,7.80
2010,05,05,16,10,9.40
2010,05,05,16,11,10.60
2010,05,05,16,12,9.70
2010,05,05,16,13,9.70
2010,05,05,16,14,12.20
2010,05,05,16,15,13.60
2010,05,05,16,16,9.00
2010,05,05,16,17,10.20
2010,05,05,16,18,8.80
2010,05,05,16,19,6.70
2010,05,05,16,20,6.20
2010,05,05,16,21,16.60
2010,05,05,16,22,12.00
2010,05,05,16,23,15.60
2010,05,05,16,24,12.80
2010,05,05,16,25,13.20
2010,05,05,16,26,13.00
2010,05,05,16,27,11.70
2010,05,05,16,28,9.80
2010,05,05,16,29,11.40
2010,05,05,16,30,13.40
2010,05,05,16,31,16.50
2010,05,05,16,32,14.50
2010,05,05,16,33,17.60
2010,05,05,16,34,18.50
2010,05,05,16,35,11.80
2010,05,05,16,36,13.00
2010,05,05,16,37,11.40
2010,05,05,16,38,8.90
2010,05,05,16,39,11.10
2010,05,05,16,40,8.90
2010,05,05,16,41,12.10
2010,05,05,16,42,10.50
2010,05,05,16,43,8.50
2010,05,05,16,44,5.70
2010,05,05,16,45,7.20
2010,05,05,16,46,5.70
2010,05,05,16,47,6.60
2010,05,05,16,48,7.10
2010,05,05,16,49,10.80
2010,05,05,16,50,12.70
2010,05,05,16,51,4.40
2010,05,05,16,52,2.00
2010,05,05,16,53,3.40
2010,05,05,16,54,5.10
2010,05,05,16,55,6.50
2010,05,05,16,56,5.60
2010,05,05,16,57,5.40
2010,05,05,16,58,7.80
2010,05,05,16,59,10.70
2010,05,05,17,00,9.60
2010,05,05,17,01,4.80
2010,05,05,17,02,7.50
2010,05,05,17,03,6.00
2010,05,05,17,04,9.70
2010,05,05,17,05,4.70
2010,05,05,17,06,8.10
2010,05,05,17,07,5.80
2010,05,05,17,08,5.00
2010,05,05,17,09,9.10
2010,05,05,17,10,10.10
2010,05,05,17,11,10.70
2010,05,05,17,12,8.70
2010,05,05,17,13,6.30
2010,05,05,17,14,8.00
2010,05,05,17,15,6.90
2010,05,05,17,16,9.20
2010,05,05,17,17,8.70
2010,05,05,17,18,7.10
2010,05,05,17,19,4.70
2010,05,05,17,20,4.70
2010,05,05,17,21,7.00
2010,05,05,17,22,9.70
2010,05,05,17,23,14.80
2010,05,05,17,24,11.30
2010,05,05,17,25,8.60
2010,05,05,17,26,5.70
2010,05,05,17,27,5.60
2010,05,05,17,28,9.00
2010,05,05,17,29,8.20
2010,05,05,17,30,8.60
2010,05,05,17,31,8.30
2010,05,05,17,32,4.10
2010,05,05,17,33,9.60
2010,05,05,17,34,6.50
2010,05,05,17,35,6.30
2010,05,05,17,36,7.70
2010,05,05,17,37,6.30
2010,05,05,17,38,5.10
2010,05,05,17,39,8.80
2010,05,05,17,40,8.10
2010,05,05,17,41,9.20
2010,05,05,17,42,8.50
2010,05,05,17,43,8.30
2010,05,05,17,44,9.30
2010,05,05,17,45,9.80
2010,05,05,17,46,11.30
2010,05,05,17,47,11.40
2010,05,05,17,48,8.10
2010,05,05,17,49,8.50
2010,05,05,17,50,10.50
2010,05,05,17,51,6.40
2010,05,05,17,52,7.70
2010,05,05,17,53,8.70
2010,05,05,17,54,5.80
2010,05,05,17,55,4.80
2010,05,05,17,56,4.10
2010,05,05,17,57,4.20
2010,05,05,17,58,2.40
2010,05,05,17,59,2.20
2010,05,05,18,00,4.70
2010,05,05,18,01,4.40
2010,05,05,18,02,3.90
2010,05,05,18,03,1.70
2010,05,05,18,04,4.70
2010,05,05,18,05,7.10
2010,05,05,18,06,9.70
2010,05,05,18,07,8.60
2010,05,05,18,08,14.40
2010,05,05,18,09,11.40
2010,05,05,18,10,6.80
2010,05,05,18,11,5.60
2010,05,05,18,12,4.70
2010,05,05,18,13,6.20
2010,05,05,18,14,6.10
2010,05,05,18,15,6.10
2010,05,05,18,16,8.30
2010,05,05,18,17,6.00
2010,05,05,18,18,3.60
2010,05,05,18,19,3.60
2010,05,05,18,20,8.70
2010,05,05,18,21,7.90
2010,05,05,18,22,5.70
2010,05,05,18,23,8.10
2010,05,05,18,24,3.80
2010,05,05,18,25,11.20
2010,05,05,18,26,7.20
2010,05,05,18,27,7.00
2010,05,05,18,28,6.50
2010,05,05,18,29,4.60
2010,05,05,18,30,3.70
2010,05,05,18,31,4.20
2010,05,05,18,32,7.00
2010,05,05,18,33,5.80
2010,05,05,18,34,8.50
2010,05,05,18,35,6.90
2010,05,05,18,36,8.10
2010,05,05,18,37,7.40
2010,05,05,18,38,4.00
2010,05,05,18,39,5.30
2010,05,05,18,40,5.90
2010,05,05,18,41,8.00
2010,05,05,18,42,6.50
2010,05,05,18,43,6.50
2010,05,05,18,44,8.30
2010,05,05,18,45,3.50
2010,05,05,18,46,7.10
2010,05,05,18,47,6.40
2010,05,05,18,48,6.40
2010,05,05,18,49,6.40
2010,05,05,18,50,6.40
2010,05,05,18,51,6.40
2010,05,05,18,52,6.40
2010,05,05,18,53,6.40
2010,05,05,18,54,6.40
2010,05,05,18,55,6.40
2010,05,05,18,56,6.40
